Location: Arnolds Mill
(42.3415°N, 73.5951°W)
Time: 10:25:46
(UTC+00:00)

BlueWalker 3 - Pass Details

Date: 29 June 2024
Orbit: 480 x 492 km, 53.2° (Epoch: 13 July)

Event Time Altitude Azimuth Distance (km) Brightness Sun altitude
Rises 04:45:36 0° 306° (NW) 2,540 6.1 -24.4°
Reaches altitude 10° 04:47:46 10° 306° (NW) 1,657 5.0 -24.4°
Enters shadow 04:50:01 35° 302° (WNW) 799 3.2 -24.4°
